Aérodrome :







RETROUVEZ-NOUS SUR...

 
LOGIN :

S'inscrire | Disclaimer

   EN    FR    IT 

 









Légende :    VFR   VFR Marginal   IFR   IFR Intensif   IFR Très Intensif
Visi : 
Plafond : 
>= 8 km
>= 3000ft
5 à 8 km
1000 à 3000 ft
1500m à 5 km
500 à 1000 ft
800 à 1500m
200 à 500 ft
< 800m
< 200 ft
Symboles :   Orages  Brouillard  Fortes neiges  Fortes précipitations  Vent > 20 kt






- Altitude de l'aérodrome : 240 ft
- Code IATA : LRM


MDLR - Casa de Campo Int.

DERNIER METAR :
  • 192300Z 00000KT 9999 SCT018 SCT300 28/26 Q1008

METARs EXPIRÉS :
  • 192200Z 00000KT 9999 SCT018 SCT300 29/25 Q1009
  • 192100Z 00000KT 9999 SCT020 SCT300 31/26 Q1009

TAF TAF MDLR
Valide du 12 à 00h jusqu'au 21 à 00h UTC


192200Z 1200/2100 00000KT 9999 FEW016
PROB30 2000 /2006 7000 -RA BKN018
BECMG 2014/2016 08008KT
FIR MDCS / Amérique du Nord



MET'MAP, la Météo Aéronautique d'un coup d'oeil ! - Copyright ORBIFLY Décembre 2007 - Disclaimer

ORBIFLY MET'MAP TEAM :

Programmation & Développement : Alexandra Zaïnal
Sur une idée originale de : Baudouin d'Aumeries
Assistance à la programmation : Marc-Olivier Méhu
Soutien technique & logistique : Manuel Goepfert

Contact : metmap@orbifly.com




SOURCES & CREDITS :

   NOAA